QFA6009 YSSY-EDDF

Flight info

Callsign QFA6009
Flight time N/A
Altitude 34000
Route KADOM1/34L KADOM A576 ATMAP M635 VTK B338 VMR B469 VPK M751 VKB A334 HTY W14 EPGOT/N0500F360 W14 PUT L515 OBMOG M770 KAKID M875 BUTOP/N0501F380 M875 TAPIS P173 DAVET B475 DOLOS/N0491F400 B449 DUKAN L850 ADEKI N644 LAGAS DCT SARPI UM10 TIVUG UL852 NEGEM L852 KOMAN DCT DEGET DCT ARSIN DCT SUBEN DCT AKINI T161 DEBHI DEBHI1C
Aircraft A35K/H-SDE2E3GHIJ3J4J5LM1ORWXY/LB1D1

Departure

Time N/A
Airport Sydney Kingsford Smith International Airport (YSSY)

Arrival

Time 2026-05-01 14:12
Airport Frankfurt Main Airport (EDDF)
Time Latitude Longitude Altitude Speed Heading
2026-05-01 13:35 47.58116 16.86060 41359 ft 488 kts 295°
2026-05-01 13:36 47.59343 16.81351 41359 ft 488 kts 295°
2026-05-01 13:36 48.22972 14.62060 41252 ft 32000 kts 295°
2026-05-01 13:36 48.57085 12.64383 41395 ft 479 kts 311°
2026-05-01 13:37 48.60031 12.57225 41367 ft 482 kts 296°
2026-05-01 13:37 48.62551 12.46724 41364 ft 484 kts 290°
2026-05-01 13:38 48.64538 12.37042 41362 ft 484 kts 290°
2026-05-01 13:39 48.66567 12.27339 41362 ft 484 kts 290°
2026-05-01 13:39 48.68646 12.17654 41361 ft 483 kts 290°
2026-05-01 13:40 48.70729 12.08005 41365 ft 482 kts 290°
2026-05-01 13:40 48.72802 11.98368 41363 ft 481 kts 290°
2026-05-01 13:41 48.74864 11.88717 41357 ft 482 kts 290°
2026-05-01 13:41 48.76916 11.79062 41348 ft 481 kts 290°
2026-05-01 13:42 48.78956 11.69416 41347 ft 480 kts 290°
2026-05-01 13:42 48.80585 11.59577 41347 ft 482 kts 282°
2026-05-01 13:43 48.81696 11.49543 41346 ft 483 kts 281°
2026-05-01 13:43 48.82719 11.39464 41324 ft 483 kts 281°
2026-05-01 13:44 48.83890 11.29524 40787 ft 473 kts 288°
2026-05-01 13:44 48.84977 11.24813 39947 ft 474 kts 296°
2026-05-01 13:44 48.86544 11.20412 39159 ft 474 kts 306°
2026-05-01 13:44 48.88555 11.16467 38316 ft 472 kts 315°
2026-05-01 13:45 48.90868 11.12947 37651 ft 469 kts 318°
2026-05-01 13:45 48.93241 11.09567 37025 ft 467 kts 320°
2026-05-01 13:45 48.95638 11.06241 36406 ft 465 kts 320°
2026-05-01 13:45 48.98041 11.02940 35754 ft 465 kts 320°
2026-05-01 13:46 49.00437 10.99635 35083 ft 465 kts 320°
2026-05-01 13:46 49.02833 10.96306 34350 ft 468 kts 319°
2026-05-01 13:46 49.05221 10.92967 33518 ft 469 kts 319°
2026-05-01 13:46 49.07625 10.89588 32727 ft 470 kts 319°
2026-05-01 13:47 49.10030 10.86204 31941 ft 471 kts 319°
2026-05-01 13:47 49.12439 10.82800 31158 ft 472 kts 319°
2026-05-01 13:47 49.14853 10.79379 30293 ft 474 kts 319°
2026-05-01 13:47 49.17271 10.75943 29357 ft 475 kts 319°
2026-05-01 13:48 49.19686 10.72509 28697 ft 471 kts 319°
2026-05-01 13:48 49.22022 10.69033 28100 ft 466 kts 316°
2026-05-01 13:48 49.24250 10.65474 27507 ft 461 kts 315°
2026-05-01 13:48 49.26452 10.61939 26915 ft 457 kts 315°
2026-05-01 13:49 49.28643 10.58442 26327 ft 453 kts 315°
2026-05-01 13:49 49.30819 10.54983 25748 ft 449 kts 316°
2026-05-01 13:49 49.32981 10.51552 25173 ft 446 kts 316°
2026-05-01 13:49 49.35122 10.48133 24603 ft 444 kts 315°
2026-05-01 13:50 49.37065 10.44463 24108 ft 443 kts 308°
2026-05-01 13:50 49.38881 10.40551 23740 ft 456 kts 307°
2026-05-01 13:50 49.40707 10.36546 23342 ft 459 kts 307°
2026-05-01 13:50 49.42534 10.32530 22959 ft 457 kts 306°
2026-05-01 13:51 49.44350 10.28532 22614 ft 461 kts 306°
2026-05-01 13:51 49.46186 10.24490 22305 ft 458 kts 306°
2026-05-01 13:51 49.47992 10.20509 21844 ft 450 kts 306°
2026-05-01 13:51 49.49143 10.17969 21595 ft 448 kts 306°
2026-05-01 13:52 49.50892 10.14110 21227 ft 447 kts 306°
2026-05-01 13:52 49.52668 10.10184 20860 ft 446 kts 306°
2026-05-01 13:52 49.54435 10.06279 20493 ft 444 kts 306°
2026-05-01 13:52 49.56201 10.02367 20114 ft 443 kts 306°
2026-05-01 13:53 49.57953 9.98471 19758 ft 442 kts 306°
2026-05-01 13:53 49.61448 9.90698 19040 ft 440 kts 305°
2026-05-01 13:53 49.63180 9.86827 18671 ft 437 kts 305°
2026-05-01 13:54 49.64904 9.82971 18284 ft 435 kts 305°
2026-05-01 13:54 49.66617 9.79133 17913 ft 433 kts 305°
2026-05-01 13:54 49.68323 9.75308 17548 ft 432 kts 305°
2026-05-01 13:54 49.70028 9.71484 17186 ft 432 kts 305°
2026-05-01 13:55 49.71729 9.67662 16831 ft 432 kts 305°
2026-05-01 13:55 49.73425 9.63846 16475 ft 429 kts 305°
2026-05-01 13:55 49.75109 9.60058 16126 ft 427 kts 305°
2026-05-01 13:55 49.76785 9.56274 15781 ft 426 kts 305°
2026-05-01 13:56 49.78424 9.52565 15439 ft 422 kts 305°
2026-05-01 13:56 49.80098 9.48773 15087 ft 419 kts 304°
2026-05-01 13:56 49.81739 9.45050 14739 ft 418 kts 304°
2026-05-01 13:56 49.83377 9.41329 14383 ft 417 kts 304°
2026-05-01 13:57 49.85001 9.37632 14053 ft 415 kts 304°
2026-05-01 13:57 49.86385 9.33724 13688 ft 413 kts 291°
2026-05-01 13:57 49.87301 9.29509 13347 ft 412 kts 286°
2026-05-01 13:57 49.88105 9.25257 12993 ft 410 kts 285°
2026-05-01 13:58 49.88899 9.21016 12652 ft 407 kts 285°
2026-05-01 13:58 49.89691 9.16817 12325 ft 405 kts 285°
2026-05-01 13:58 49.90470 9.12692 11994 ft 402 kts 285°
2026-05-01 13:58 49.91255 9.08546 11663 ft 399 kts 285°
2026-05-01 13:59 49.92034 9.04438 11333 ft 396 kts 285°
2026-05-01 13:59 49.92813 9.00345 11155 ft 395 kts 285°
2026-05-01 13:59 49.93595 8.96239 11005 ft 390 kts 285°
2026-05-01 13:59 49.94345 8.92307 10869 ft 372 kts 285°
2026-05-01 14:00 49.95063 8.88538 10712 ft 355 kts 285°
2026-05-01 14:00 49.95740 8.84986 10566 ft 340 kts 285°
2026-05-01 14:00 49.96395 8.81534 10423 ft 325 kts 284°
2026-05-01 14:00 49.97019 8.78237 10290 ft 312 kts 284°
2026-05-01 14:01 49.97616 8.75066 10151 ft 300 kts 284°
2026-05-01 14:01 49.97963 8.71855 10038 ft 296 kts 267°
2026-05-01 14:01 49.97589 8.68802 9920 ft 291 kts 249°
2026-05-01 14:01 49.96898 8.65852 9816 ft 291 kts 246°
2026-05-01 14:02 49.96172 8.62918 9688 ft 291 kts 246°
2026-05-01 14:02 49.95451 8.59983 9565 ft 290 kts 246°
2026-05-01 14:02 49.94737 8.57056 9452 ft 290 kts 246°
2026-05-01 14:02 49.94027 8.54133 9333 ft 289 kts 246°
2026-05-01 14:03 49.93319 8.51212 9194 ft 289 kts 246°
2026-05-01 14:03 49.92612 8.48290 8840 ft 288 kts 246°
2026-05-01 14:03 49.91910 8.45391 8480 ft 286 kts 246°
2026-05-01 14:03 49.91215 8.42513 8097 ft 284 kts 246°
2026-05-01 14:04 49.90524 8.39651 7732 ft 282 kts 246°
2026-05-01 14:04 49.89854 8.36876 7345 ft 267 kts 247°
2026-05-01 14:04 49.89222 8.34245 6983 ft 254 kts 246°
2026-05-01 14:04 49.88818 8.32573 6736 ft 247 kts 246°
2026-05-01 14:05 49.88021 8.29283 6228 ft 242 kts 246°
2026-05-01 14:05 49.87633 8.26737 5850 ft 245 kts 263°
2026-05-01 14:05 49.87914 8.24141 5471 ft 249 kts 292°
2026-05-01 14:05 49.89040 8.22129 5195 ft 252 kts 327°
2026-05-01 14:06 49.90590 8.20849 4964 ft 253 kts 335°
2026-05-01 14:06 49.92216 8.19777 4684 ft 254 kts 348°
2026-05-01 14:06 49.93914 8.19955 4419 ft 242 kts 26°
2026-05-01 14:06 49.95143 8.21545 4157 ft 227 kts 60°
2026-05-01 14:07 49.95787 8.23692 4000 ft 215 kts 76°
2026-05-01 14:07 49.96233 8.25830 3979 ft 198 kts 75°
2026-05-01 14:07 49.96682 8.27798 3828 ft 190 kts 73°
2026-05-01 14:08 49.97578 8.31579 3321 ft 184 kts 73°
2026-05-01 14:08 49.98014 8.33434 3052 ft 180 kts 72°
2026-05-01 14:08 49.98444 8.35252 2803 ft 179 kts 72°
2026-05-01 14:08 49.98868 8.37040 2547 ft 173 kts 73°
2026-05-01 14:09 49.99277 8.38777 2351 ft 170 kts 73°
2026-05-01 14:09 49.99688 8.40503 2103 ft 168 kts 73°
2026-05-01 14:09 50.00077 8.42138 1881 ft 155 kts 73°
2026-05-01 14:09 50.00428 8.43627 1705 ft 139 kts 73°
2026-05-01 14:10 50.00749 8.44985 1515 ft 133 kts 72°
2026-05-01 14:10 50.01069 8.46326 1360 ft 131 kts 74°
2026-05-01 14:10 50.01383 8.47652 1185 ft 131 kts 73°
2026-05-01 14:10 50.01704 8.48969 1041 ft 130 kts 73°
2026-05-01 14:11 50.02016 8.50293 789 ft 131 kts 72°
2026-05-01 14:11 50.02699 8.53130 403 ft 146 kts 73°
2026-05-01 14:11 50.03020 8.54524 350 ft 124 kts 70°
2026-05-01 14:12 50.03284 8.55634 359 ft 89 kts 70°
2026-05-01 14:12 50.03453 8.56344 364 ft 56 kts 69°
2026-05-01 14:12 50.03553 8.56761 364 ft 37 kts 70°
2026-05-01 14:12 50.03590 8.57137 367 ft 31 kts 105°
2026-05-01 14:13 50.03547 8.57299 368 ft 0 kts 114°
2026-05-01 14:13 50.03547 8.57300 368 ft 1 kts 114°
2026-05-01 14:13 50.03540 8.57327 368 ft 4 kts 114°
2026-05-01 14:14 50.03534 8.57347 366 ft 5 kts 114°
2026-05-01 14:14 50.03517 8.57383 369 ft 7 kts 137°
2026-05-01 14:14 50.03433 8.57452 368 ft 17 kts 157°
2026-05-01 14:15 50.03339 8.57456 367 ft 9 kts 220°
2026-05-01 14:15 50.03316 8.57426 368 ft 0 kts 202°
2026-05-01 14:15 50.03322 8.57394 362 ft 2 kts 206°
2026-05-01 14:15 50.03269 8.57346 368 ft 10 kts 206°
2026-05-01 14:16 50.03215 8.57307 365 ft 0 kts 205°